Location: Carthage
(33.8834°N, 106.6595°W)
Time: 09:57:37
(UTC+00:00)

Daily predictions for brighter satellites

Satellite Brightness Start Highest point End
(mag) Time Altitude Azimuth Time Altitude Azimuth Time Altitude Azimuth
Cosmos 2123 Rocket 3.8 12:00:35 10° N 12:06:48 84° W 12:12:58 10° S
Cosmos 2084 3.1 12:07:57 81° SSW 12:07:57 81° SSW 12:11:53 10° SSE
IRS-1D 3.7 12:04:43 10° NNE 12:09:53 72° ESE 12:14:54 10° S
Cosmos 2263 Rocket 3.4 12:04:38 10° N 12:09:59 42° ENE 12:15:16 10° SE
Cosmos 1503 Rocket 3.8 12:07:29 19° SSW 12:11:15 78° WNW 12:16:28 10° NNE
ISS -3.6 12:17:33 64° S 12:17:50 69° SE 12:21:09 10° NE
Cosmos 2344 4.2 12:10:38 14° NW 12:18:30 66° WSW 12:30:56 10° SSE
Cosmos 1378 Rocket 3.3 12:15:53 22° NNW 12:18:33 66° W 12:22:47 10° S
Cosmos 2369 3.9 12:13:23 10° SSW 12:19:02 75° ESE 12:24:42 10° NNE
NOAA 12 4.0 12:18:19 10° N 12:23:35 75° WNW 12:28:51 10° SSW
COSMOS 2455 3.4 12:23:00 33° WNW 12:24:01 35° WNW 12:29:32 10° N
Cosmos 1535 Rocket 4.4 12:18:15 10° S 12:24:38 78° W 12:31:02 10° N
Cosmos 1570 Rocket 4.0 12:23:49 15° NNW 12:28:00 57° WSW 12:33:05 10° S
SL-16 R/B 4.1 12:23:51 10° SSE 12:28:45 31° ESE 12:33:40 10° NE
Cosmos 1025 Rocket 3.0 12:25:01 10° N 12:29:22 83° E 12:33:41 10° S
Cosmos 1400 Rocket 3.3 12:26:00 10° S 12:29:41 57° E 12:33:25 10° NNE
Cosmos 1934 Rocket 4.3 12:24:33 10° SSW 12:30:12 40° W 12:35:58 10° N
Cosmos 1777 Rocket 4.5 12:33:04 26° WSW 12:35:01 36° WNW 12:39:46 10° N
Cosmos 2333 Rocket 4.3 12:33:27 10° SSE 12:38:21 29° ESE 12:43:14 10° NE
Cosmos 2227 Rocket 2.2 12:34:58 10° NNW 12:40:32 58° WSW 12:46:03 10° S
OAO 3 Rocket 4.2 12:39:22 22° WSW 12:40:58 28° SSW 12:44:51 10° SSE
Cosmos 1300 Rocket 3.6 12:39:49 10° S 12:44:11 85° E 12:48:36 10° N
COSMO-SKYMED 1 2.6 12:41:52 10° SSE 12:45:56 74° ENE 12:50:02 10° N
Cosmos 2208 Rocket 4.2 12:43:41 10° NNW 12:48:56 52° WSW 12:54:10 10° S
Cosmos 773 Rocket 4.2 12:45:14 10° NNW 12:50:11 45° WSW 12:55:05 10° S
Cosmos 1605 Rocket 4.2 12:44:17 10° SSW 12:50:29 51° W 12:56:41 10° N
Cosmos 1674 Rocket 4.1 12:51:08 10° NNW 12:55:08 35° W 12:59:07 10° SSW
Cosmos 2322 Rocket 4.3 12:54:58 10° SSE 12:59:54 32° ESE 13:04:51 10° NE
Cosmos 1980 Rocket 3.3 12:59:46 12° WSW 13:03:29 23° WNW 13:07:51 10° N
Cosmos 1869 2.9 13:02:14 10° SSW 13:05:45 68° W 13:09:16 10° N
Cosmos 372 Rocket 4.0 13:01:56 10° SSW 13:06:59 87° ESE 13:12:06 10° NNE
Cosmos 1459 Rocket 4.4 13:03:55 10° S 13:09:53 68° E 13:15:54 10° NNE
Cosmos 1898 Rocket 3.9 13:06:22 10° S 13:11:36 73° ESE 13:16:53 10° NNE
Cosmos 1346 Rocket 4.0 13:08:24 10° N 13:11:55 42° E 13:15:23 10° SSE
SMAP 3.7 13:09:12 10° NNE 13:13:49 63° E 13:18:25 10° S
SL-4 R/B 2.4 13:19:11 10° NW 13:22:47 54° NE 13:26:32 10° ESE
CORIOLIS 4.3 13:18:14 10° NNE 13:23:38 80° ESE 13:28:58 10° S
Cosmos 2278 3.8 13:18:41 10° SSW 13:24:19 85° ESE 13:29:58 10° NNE
DMSP B5D1-3 4.5 13:20:38 10° S 13:25:38 70° WSW 13:30:42 10° NNW
Cosmos 1937 Rocket 3.9 13:21:19 10° S 13:26:24 71° ESE 13:31:34 10° NNE
